RH
72 60 52 41 58 51 50 44 39 40 40 33 22 28 30 48 48 48 46 44 30 35 35 32 29 24 21 18 18 20 18 13 11 12 12 12 12 13 13 11 12 12 13 13
81 73 51 66 64 48 46 45 38 33 37 38 34 21 48 52 51 47 43 48 46 44 45 41 28 25 17 16 16 20 20 15 13 13 13 13 14 15 15 13 13 14 16 15
87 74 70 70 58 50 47 45 42 37 40 43 37 34 31 43 45 49 49 46 53 59 45 45 43 21 12 13 14 20 22 17 15 16 15 16 16 17 15 14 15 18 18 16
82 74 65 66 59 52 44 47 40 35 37 36 32 34 27 27 36 40 45 50 52 51 42 37 21 14 14 12 11 17 23 18 18 18 18 18 17 18 16 16 19 20 18 17
75 68 57 60 53 50 42 42 38 37 40 31 29 27 23 22 23 31 32 39 36 28 24 26 17 13 13 11 11 18 23 20 20 22 22 21 21 21 18 19 22 21 18 17
66 58 58 60 57 55 45 41 38 32 36 50 29 28 21 17 17 16 18 26 25 23 21 18 16 14 12 12 14 20 22 22 23 25 24 25 26 20 20 22 21 19 19 20
66 54 52 57 53 52 45 42 48 54 58 67 31 32 27 25 15 13 18 19 19 19 18 18 16 14 14 15 18 22 23 24 27 27 27 30 23 23 23 22 21 21 22 29
61 45 47 49 51 50 46 44 61 62 81 56 31 33 22 23 22 18 19 20 16 15 15 15 15 15 15 16 19 22 25 28 29 29 33 27 24 24 23 22 23 26 30 30
48 52 52 46 46 56 45 47 50 39 40 40 25 20 24 20 18 18 18 17 16 14 13 14 14 14 14 16 19 23 27 29 32 34 28 25 24 24 25 27 32 34 36 38
41 41 46 43 43 46 51 43 42 40 46 40 42 26 16 15 16 15 14 15 14 13 14 14 14 14 16 18 21 25 29 33 30 27 25 26 27 30 34 35 35 39 40 40
39 43 40 46 36 39 39 41 37 36 36 43 37 32 25 24 25 21 17 14 16 17 16 15 17 18 21 25 28 30 29 27 26 26 29 32 36 37 36 38 41 43 46 54
35 38 42 42 49 40 44 35 32 30 31 29 25 24 20 17 14 13 13 16 16 16 17 18 20 22 25 26 27 27 28 29 32 34 35 37 37 41 44 46 48 54 64 69
36 36 35 38 44 42 48 49 38 33 30 28 34 24 20 14 14 15 14 14 15 16 18 19 20 21 22 27 31 34 34 34 32 34 39 46 49 50 50 54 64 71 75 82
37 33 35 35 31 30 30 30 32 36 34 28 23 16 21 21 20 20 19 14 14 15 14 16 18 22 27 30 33 35 32 28 36 45 51 52 53 55 63 73 81 85 88 88
28 30 27 26 27 29 25 22 22 22 26 31 21 20 20 22 22 23 22 21 20 19 17 16 19 23 25 26 31 32 33 43 51 55 57 58 64 75 85 90 91 91 83 65
47 36 31 32 31 19 16 14 13 15 17 20 18 17 21 27 29 26 26 25 24 21 19 20 21 22 24 32 35 38 50 57 62 63 65 74 86 92 94 92 75 60 54 43
58 54 42 38 42 46 41 29 30 26 19 14 13 11 12 15 19 21 20 20 24 24 24 26 30 31 35 41 49 58 62 66 69 74 84 93 96 85 67 56 48 39 30 22
56 60 56 48 49 63 41 44 43 39 33 33 31 30 31 24 21 25 25 26 26 30 34 36 40 41 50 58 64 68 72 76 81 92 96 86 63 58 47 42 32 24 13 10
44 62 61 55 65 49 38 38 40 40 36 36 35 34 37 40 38 35 34 35 45 53 57 58 59 61 62 65 68 71 77 87 97 95 77 64 52 47 37 30 16 11 8 7
40 49 66 62 69 73 50 46 45 45 43 38 40 42 46 47 45 47 49 53 58 63 64 63 61 63 66 70 76 84 91 95 83 72 68 57 43 36 22 14 10 7 7 6
51 52 60 58 69 54 52 51 48 53 46 48 48 47 46 46 49 51 58 60 64 64 64 64 60 61 68 74 81 93 100 88 80 70 52 40 29 19 13 9 8 6 5 5
45 52 53 68 81 73 50 52 52 51 52 51 51 50 48 49 53 60 71 71 69 70 70 63 66 80 92 99 98 96 84 84 67 48 39 26 19 13 10 8 6 6 5 13
55 47 49 50 50 52 52 51 54 58 57 56 61 62 60 58 59 67 73 74 73 73 71 68 83 100 96 82 81 83 88 68 50 34 25 16 13 11 8 7 6 6 19 26
59 57 57 54 49 52 57 55 53 62 66 67 67 68 64 65 73 78 79 82 83 77 74 84 86 76 76 86 94 86 64 45 31 23 16 14 12 11 8 8 8 21 32 24
49 54 56 56 53 51 55 57 67 67 68 69 74 76 75 80 84 86 93 92 88 78 80 89 86 94 90 82 68 57 39 29 20 17 15 14 14 12 11 8 12 35 32 26
50 52 66 66 54 53 58 65 80 83 83 83 82 75 82 92 97 97 96 95 87 82 79 79 86 86 72 65 50 36 26 19 19 16 16 16 14 11 8 8 24 41 30 30
Wind_Speed
5 6 12 16 16 12 7 12 12 17 13 17 26 24 26 27 29 23 21 25 15 14 13 15 17 21 16 17 15 17 16 17 17 18 18 19 20 19 17 15 14 13 13 14
4 3 8 7 4 11 10 12 17 14 18 19 18 27 22 22 26 31 37 19 16 21 20 21 18 24 22 20 18 19 19 20 19 20 20 21 21 21 18 16 15 14 14 14
1 4 2 2 6 11 11 10 2 6 15 18 14 22 28 32 21 25 38 42 32 26 24 21 29 29 22 21 20 21 22 21 21 22 21 22 22 21 18 16 16 15 15 15
3 2 3 6 7 3 11 6 4 2 18 14 16 6 24 30 33 30 28 36 38 36 31 28 27 28 26 24 24 24 23 24 23 23 23 23 23 21 18 16 16 15 15 15
3 2 3 5 8 8 11 9 7 5 8 6 16 8 19 21 36 33 31 30 29 28 28 28 31 30 28 28 27 25 25 25 24 24 24 24 22 20 18 17 16 16 15 16
8 4 4 4 3 4 7 3 4 6 5 2 9 15 8 23 22 29 33 32 31 32 33 32 33 31 28 29 29 27 27 25 25 25 24 23 22 19 18 17 16 16 17 17
6 2 5 2 5 6 11 3 3 1 1 4 12 11 14 7 23 22 22 29 30 33 35 36 34 30 29 29 27 27 26 25 24 24 23 22 20 19 17 17 18 18 18 19
4 1 3 2 4 4 8 9 2 5 3 5 10 9 13 20 16 18 21 28 28 27 28 31 31 29 27 27 26 26 25 24 24 23 23 21 19 19 18 18 19 20 22 22
7 3 2 5 5 6 10 10 8 4 5 1 12 16 7 22 17 18 19 24 24 24 24 25 25 24 22 22 23 23 23 23 22 22 21 20 19 19 19 20 22 23 24 25
5 7 7 6 9 11 8 10 8 7 1 3 6 13 16 21 23 26 28 27 26 25 23 20 20 20 20 20 20 20 20 20 20 21 20 19 19 20 21 22 23 24 27 29
9 6 8 9 9 15 15 14 8 5 5 3 2 4 10 15 12 18 23 24 25 23 21 18 17 17 18 18 18 18 18 19 20 20 19 19 20 22 23 23 25 27 29 30
9 7 9 12 11 14 18 17 18 8 5 5 3 7 4 7 5 6 9 14 16 17 16 16 16 16 16 16 17 18 19 18 18 18 19 21 22 22 23 25 27 28 29 29
4 5 5 5 7 12 18 19 17 20 14 15 4 6 5 3 3 2 6 9 10 12 14 15 14 15 17 17 18 18 18 19 20 20 21 21 22 24 25 27 27 28 29 31
10 12 13 10 6 8 7 9 16 22 18 21 27 29 25 18 21 19 14 10 11 12 14 16 17 17 17 18 19 19 20 21 21 21 21 22 24 25 26 27 28 30 33 37
7 14 14 17 19 18 20 20 18 21 26 22 23 19 19 24 20 17 15 16 18 18 17 15 16 18 19 20 21 21 21 21 20 21 22 24 25 26 27 29 32 35 38 39
16 12 15 22 16 14 20 21 21 24 24 28 28 31 26 18 19 19 18 19 21 21 21 22 21 22 22 21 21 22 20 20 21 22 24 25 26 28 30 33 35 35 36 38
20 14 12 8 7 14 20 16 19 26 26 26 30 27 25 25 25 24 25 25 23 23 24 23 20 20 21 21 21 20 20 21 23 24 25 26 29 31 32 33 35 36 37 38
18 17 11 14 16 4 3 7 9 12 11 14 18 20 17 19 22 22 22 21 21 22 22 22 21 20 19 18 19 20 21 23 24 25 28 31 32 32 33 33 34 36 39 42
10 13 9 6 8 21 21 13 13 15 15 13 14 16 17 17 20 22 22 23 20 17 18 17 15 14 14 17 20 23 24 25 26 29 30 31 32 31 32 33 36 39 42 41
13 12 15 7 5 4 4 9 14 17 24 14 13 12 16 16 18 18 17 17 16 15 14 11 10 14 18 21 24 25 26 27 29 30 30 29 29 31 34 37 40 41 40 41
11 11 16 20 12 16 18 18 18 9 7 7 9 10 13 14 15 14 12 10 11 11 12 14 17 19 21 23 26 27 28 29 28 27 27 29 31 34 37 39 38 39 41 42
18 11 13 9 10 13 8 9 6 5 10 16 20 25 25 18 16 13 11 11 12 15 18 19 20 21 23 24 26 27 27 26 27 27 27 29 33 36 37 37 39 41 42 39
24 25 21 17 15 16 19 25 26 28 32 30 25 20 16 17 18 17 15 15 19 21 22 22 22 22 25 25 25 25 25 26 25 26 29 32 36 35 35 38 42 42 38 36
26 26 30 29 35 34 35 31 32 32 31 28 22 22 21 22 22 20 19 20 21 23 22 22 23 23 22 22 22 24 24 25 27 30 33 36 35 33 35 39 41 39 36 35
33 31 35 41 38 36 37 36 32 32 28 22 20 21 23 25 25 24 23 23 25 24 22 21 21 22 21 22 24 25 26 28 31 34 36 34 33 35 37 39 39 37 34 35
42 41 40 45 36 36 37 35 29 28 25 24 23 22 23 25 26 25 26 26 25 23 22 21 20 21 24 24 24 26 28 31 35 34 32 32 33 36 38 39 37 34 33 33
Wind_Direction
103 157 192 193 190 170 191 239 223 219 225 230 225 215 225 220 222 216 219 236 242 241 237 257 264 267 262 265 262 263 269 272 275 283 290 295 299 300 294 291 289 289 289 290
99 18 153 162 209 230 235 260 236 230 227 226 221 221 207 212 223 226 232 226 250 266 267 280 277 282 275 265 261 265 269 270 273 279 287 294 296 297 295 289 287 286 286 288
84 74 85 211 206 215 222 232 232 241 212 206 214 226 220 220 212 219 226 235 249 255 242 252 275 262 263 267 266 261 264 267 271 277 285 290 292 293 290 286 285 283 284 287
357 128 177 224 219 220 211 233 282 174 193 191 199 231 229 223 223 221 219 224 219 225 225 229 243 257 263 266 264 261 263 265 267 276 284 287 291 293 286 282 281 281 283 287
7 326 233 218 198 214 220 243 267 199 211 181 203 218 241 220 227 225 222 221 225 229 233 238 251 257 259 262 262 259 257 262 268 275 282 288 290 286 280 279 278 278 278 280
350 301 164 180 210 225 208 253 185 207 233 226 231 216 244 232 231 233 233 232 235 240 243 246 249 253 257 261 259 256 257 262 268 275 281 282 283 277 275 277 275 273 275 278
358 64 187 271 229 220 216 212 38 24 320 215 220 232 234 210 229 237 225 223 233 240 244 247 251 255 260 260 256 255 258 262 267 274 274 276 274 274 276 272 270 271 274 279
334 61 226 310 207 200 196 205 211 183 178 233 227 229 227 238 248 228 213 227 239 242 244 247 251 254 254 254 253 254 256 260 263 265 270 271 273 272 268 268 271 274 278 283
336 280 246 237 217 198 201 217 221 309 253 209 218 234 243 226 232 232 226 231 240 245 247 247 249 252 251 250 249 248 250 253 257 265 268 269 268 267 269 270 275 281 286 289
280 310 281 236 218 225 220 209 216 233 213 245 245 218 221 237 232 230 235 238 241 243 241 245 250 250 246 243 242 243 245 254 262 264 266 265 266 268 270 275 282 285 286 289
289 269 290 301 231 216 223 225 221 228 244 182 297 240 230 241 240 240 241 243 243 244 246 244 240 240 238 237 240 248 255 259 262 265 265 266 268 273 280 283 282 284 287 288
265 270 278 284 276 231 218 232 232 230 225 223 283 282 236 286 255 232 231 235 237 238 240 237 235 236 239 246 251 255 260 261 261 265 270 273 278 279 278 279 282 284 285 285
266 246 272 279 260 248 242 226 223 230 242 243 192 257 315 4 50 323 232 222 224 228 231 235 243 249 252 253 254 257 259 265 270 273 274 274 273 275 279 280 281 281 284 287
271 254 245 242 253 282 265 251 242 235 243 244 247 257 262 283 289 291 287 267 244 243 251 255 256 257 258 258 259 263 266 269 270 270 270 273 276 278 279 279 282 286 290 293
272 274 272 269 273 273 271 266 258 248 242 241 264 260 266 260 267 264 259 260 266 267 262 258 261 262 262 263 262 263 267 270 270 271 274 277 280 282 284 287 291 293 294 294
303 290 298 296 295 273 268 262 252 252 251 251 259 264 253 253 262 263 271 273 278 272 261 258 260 264 262 261 264 266 266 267 270 274 277 280 282 286 289 292 292 292 293 295
292 291 299 287 297 301 289 286 257 256 260 263 258 272 273 263 261 265 270 272 270 268 264 268 261 257 258 259 261 261 265 269 272 276 279 284 289 292 292 293 293 294 295 297
269 275 280 283 300 249 287 286 294 284 278 274 273 279 280 272 269 268 268 266 264 268 265 260 257 255 256 257 260 266 270 274 278 282 287 292 293 294 294 294 295 298 301 305
302 261 260 274 289 289 303 287 294 295 295 294 279 271 272 273 266 263 263 267 263 254 248 250 250 253 259 263 267 272 275 278 282 287 291 293 293 292 294 298 302 306 307 306
298 286 239 260 267 268 308 315 313 311 309 297 292 281 280 275 266 268 261 260 258 255 251 246 256 269 269 271 273 274 278 283 288 289 290 292 295 298 301 305 308 308 307 308
279 271 253 255 245 269 273 287 298 296 305 323 320 318 312 298 281 269 257 243 225 227 253 274 280 275 272 272 274 277 279 284 287 291 295 296 298 302 306 308 308 308 308 310
278 260 263 248 221 257 276 288 282 306 312 307 299 302 304 292 280 260 246 238 249 271 281 281 275 270 268 271 273 276 285 289 290 291 293 299 304 307 308 308 310 311 311 310
254 262 265 255 260 265 280 282 282 286 291 295 290 292 287 280 266 253 252 264 280 286 286 281 273 269 271 276 282 284 284 287 291 296 299 302 306 307 308 310 313 311 308 306
259 263 259 269 273 267 271 280 289 286 286 283 279 278 280 267 257 250 263 278 284 288 281 271 272 278 281 280 282 284 287 291 295 299 303 307 306 306 307 311 312 310 308 308
267 270 270 273 275 273 276 283 284 279 282 280 277 269 261 258 256 262 276 281 285 282 273 271 275 281 283 285 286 289 293 296 300 303 305 305 305 305 307 310 312 309 307 309
267 273 267 269 283 279 283 286 277 276 278 279 279 266 263 259 262 273 278 278 276 269 269 274 279 283 284 284 287 290 294 299 302 304 304 305 305 306 310 312 310 308 307 310